This is the latest recevied weather packets stored in our database for station/object KE5VT. If no packets are shown the sender has not sent any weather packets the latest 10 day(s).
| Time | Temp. | Humidity | Pressure | Rain* | Wind** | Luminosity | Snow |
|---|---|---|---|---|---|---|---|
| 1788049982 | 26.67° C | 80% | 1016.7 hPa | 0 mm | - | 0 W/m² | - |
| 1788049679 | 26.67° C | 80% | 1016.8 hPa | 0 mm | - | 0 W/m² | - |
| 1788049375 | 26.67° C | 79% | 1016.8 hPa | 0 mm | - | 0 W/m² | - |
| 1788049075 | 27.22° C | 78% | 1016.7 hPa | 0 mm | - | 0 W/m² | - |
| 1788048771 | 27.22° C | 77% | 1016.5 hPa | 0 mm | - | 0 W/m² | - |
| 1788048469 | 27.22° C | 77% | 1016.4 hPa | 0 mm | - | 1 W/m² | - |
| 1788048168 | 27.22° C | 77% | 1016.7 hPa | 0 mm | - | 2 W/m² | - |
| 1788047866 | 27.22° C | 77% | 1016.7 hPa | 0 mm | - | 5 W/m² | - |
| 1788047561 | 27.78° C | 76% | 1016.4 hPa | 0 mm | - | 8 W/m² | - |
| 1788047261 | 27.78° C | 75% | 1016.3 hPa | 0 mm | - | 11 W/m² | - |
| 1788046956 | 27.78° C | 76% | 1016.5 hPa | 0 mm | - | 13 W/m² | - |
| 1788046654 | 27.78° C | 75% | 1016.3 hPa | 0 mm | - | 16 W/m² | - |
| 1788046350 | 27.78° C | 75% | 1016.1 hPa | 0 mm | - | 20 W/m² | - |
| 1788046047 | 27.78° C | 74% | 1016.3 hPa | 0 mm | - | 25 W/m² | - |
| 1788045743 | 27.78° C | 74% | 1016.2 hPa | 0 mm | - | 29 W/m² | - |
| 1788045438 | 28.33° C | 75% | 1016.2 hPa | 0 mm | - | 34 W/m² | - |
| 1788045133 | 28.33° C | 74% | 1016.4 hPa | 0 mm | - | 39 W/m² | - |
| 1788044833 | 28.33° C | 73% | 1016.4 hPa | 0 mm | - | 43 W/m² | - |
| 1788044528 | 28.33° C | 74% | 1016.5 hPa | 0 mm | - | 41 W/m² | - |
| 1788044227 | 28.33° C | 73% | 1016.4 hPa | 0 mm | - | 44 W/m² | - |
| 1788043923 | 28.33° C | 73% | 1016.2 hPa | 0 mm | - | 47 W/m² | - |
| 1788043618 | 28.33° C | 72% | 1016.3 hPa | 0 mm | - | 59 W/m² | - |
| 1788043313 | 28.89° C | 73% | 1016.2 hPa | 0 mm | - | 81 W/m² | - |
| 1788043008 | 28.89° C | 72% | 1016.2 hPa | 0 mm | - | 93 W/m² | - |
| 1788042703 | 28.89° C | 71% | 1016.3 hPa | 0 mm | - | 121 W/m² | - |
* Rain latest hour (hover to see other rain measurements)
** Current wind speed in m/s (hover to see current wind gust speed)